Weather History for Covington, KY

Change the Weather History Date:

Monday, December 30, 2013

  Actual Average Record
Temperature  
Mean Temperature 27 °F 31 °F  
Max Temperature 32 °F 39 °F 65 °F (1964)
Min Temperature 21 °F 24 °F -8 °F (1983)
Degree Days  
Heating Degree Days 38 34  
Month to date heating degree days 878 925  
Since 1 July heating degree days 1914 1885  
Cooling Degree Days 0 0  
Month to date cooling degree days 0 0  
Year to date cooling degree days 1150 1121  
Moisture  
Dew Point 21 °F    
Average Humidity 77    
Maximum Humidity 85    
Minimum Humidity 68    
Precipitation  
Precipitation T in 0.11 in 2.51 in (1932)
Month to date precipitation 4.93 3.27  
Year to date precipitation 49.50 42.42  
Snow  
Snow 0.10 in 0.20 in 2.50 in (1895)
Month to date snowfall 10.4 4.6  
Since 1 July snowfall 12.8 5.4  
Snow Depth 0.00 in    
Sea Level Pressure  
Sea Level Pressure 30.17 in    
Wind  
Wind Speed 8 mph (WNW)    
Max Wind Speed 18 mph    
Max Gust Speed 22 mph    
Visibility 9 miles    
Events Snow    
T = Trace of Precipitation, MM = Missing Value Source: NWS Daily Summary

Daily Weather History Graph

Daily Weather History Graph

Search for Another Location

Airport:

Trip Planner

Search our weather history database for the weather conditions in past years. The results will help you decide how hot, cold, wet, or windy it might be!

Date:

Astronomy

Dec. 30, 2013 Rise Set
Actual Time 7:57 AM EST 5:25 PM EST
Civil Twilight 7:27 AM EST 5:55 PM EST
Nautical Twilight 6:53 AM EST 6:28 PM EST
Astronomical Twilight 6:21 AM EST 7:01 PM EST
Moon 5:46 AM EST (12/30) 3:57 PM EST (12/30)
Length of Visible Light 10h 27m
Length of Day
9h 28m
Waning Crescent, 5% of the Moon is Illuminated
Dec 30
Waning Crescent
Jan 1
New
Jan 7
First Quarter
Jan 15
Full
Jan 24
Last Quarter

Hourly Weather History & Observations

Time (EST) Temp. Windchill Dew Point Humidity Pressure Visibility Wind Dir Wind Speed Gust Speed Precip Events Conditions
12:06 AM 32.0 °F 23.6 °F 30.2 °F 93% 30.03 in 1.8 mi WNW 10.4 mph - 0.01 in Snow Light Snow
12:09 AM 32.0 °F 23.0 °F 30.2 °F 93% 30.04 in 3.0 mi WNW 11.5 mph - 0.01 in Snow Light Snow
12:32 AM 32.0 °F 21.6 °F 28.4 °F 87% 30.04 in 10.0 mi NW 15.0 mph - 0.01 in   Overcast
12:52 AM 32.0 °F 21.6 °F 28.0 °F 85% 30.06 in 10.0 mi NW 15.0 mph - 0.01 in   Overcast
1:17 AM 30.2 °F 20.2 °F 28.4 °F 93% 30.06 in 10.0 mi NW 12.7 mph - N/A   Overcast
1:52 AM 30.9 °F 22.2 °F 27.0 °F 85% 30.08 in 10.0 mi NW 10.4 mph - N/A   Overcast
2:26 AM 30.2 °F 20.8 °F 26.6 °F 86% 30.08 in 10.0 mi NW 11.5 mph 21.9 mph N/A   Overcast
2:52 AM 30.0 °F 20.5 °F 26.1 °F 85% 30.10 in 10.0 mi NW 11.5 mph 19.6 mph N/A   Overcast
3:00 AM 30.2 °F 21.3 °F 26.6 °F 86% 30.09 in 10.0 mi NW 10.4 mph 19.6 mph N/A   Overcast
3:13 AM 30.2 °F 21.3 °F 26.6 °F 86% 30.10 in 10.0 mi WNW 10.4 mph - N/A   Overcast
3:52 AM 30.0 °F 23.2 °F 25.0 °F 82% 30.13 in 10.0 mi WNW 6.9 mph - N/A   Overcast
4:52 AM 30.0 °F 20.5 °F 25.0 °F 82% 30.13 in 10.0 mi West 11.5 mph - N/A   Overcast
5:52 AM 28.9 °F 19.2 °F 24.1 °F 82% 30.16 in 10.0 mi West 11.5 mph - N/A   Overcast
6:52 AM 28.0 °F 18.6 °F 21.9 °F 78% 30.19 in 10.0 mi West 10.4 mph - N/A   Overcast
7:52 AM 27.0 °F 16.7 °F 19.9 °F 75% 30.22 in 10.0 mi WNW 11.5 mph - N/A   Overcast
8:52 AM 26.1 °F 16.2 °F 19.0 °F 75% 30.23 in 10.0 mi NW 10.4 mph - N/A   Overcast
9:52 AM 26.1 °F 18.4 °F 19.9 °F 78% 30.25 in 3.0 mi NW 6.9 mph - 0.00 in Snow Light Snow
10:52 AM 26.1 °F 19.4 °F 21.0 °F 81% 30.26 in 3.0 mi NNW 5.8 mph - 0.00 in Snow Light Snow
11:23 AM 26.6 °F 18.2 °F 19.4 °F 74% 30.23 in 6.0 mi NNW 8.1 mph - 0.00 in Snow Light Snow
11:52 AM 26.1 °F 16.8 °F 19.0 °F 75% 30.25 in 10.0 mi NNW 9.2 mph - 0.00 in   Overcast
12:10 PM 26.6 °F 18.2 °F 19.4 °F 74% 30.22 in 10.0 mi NNW 8.1 mph - N/A   Overcast
12:52 PM 27.0 °F 17.3 °F 19.0 °F 72% 30.23 in 7.0 mi NW 10.4 mph - 0.00 in Snow Light Snow
1:52 PM 27.0 °F 20.5 °F 18.0 °F 69% 30.21 in 8.0 mi West 5.8 mph - 0.00 in   Overcast
2:52 PM 27.0 °F 18.0 °F 18.0 °F 69% 30.19 in 8.0 mi West 9.2 mph - 0.00 in Snow Light Snow
3:52 PM 26.1 °F 16.8 °F 17.1 °F 69% 30.20 in 9.0 mi WNW 9.2 mph - 0.00 in   Overcast
4:13 PM 26.6 °F 19.1 °F 17.6 °F 69% 30.18 in 10.0 mi WNW 6.9 mph - 0.00 in   Overcast
4:52 PM 25.0 °F 18.1 °F 16.0 °F 69% 30.20 in 9.0 mi West 5.8 mph - 0.00 in   Overcast
5:38 PM 24.8 °F 16.9 °F 15.8 °F 69% 30.18 in 10.0 mi West 6.9 mph - N/A   Overcast
5:52 PM 25.0 °F 16.3 °F 16.0 °F 69% 30.22 in 10.0 mi West 8.1 mph - N/A   Overcast
6:52 PM 24.1 °F 15.2 °F 15.1 °F 69% 30.23 in 10.0 mi WNW 8.1 mph - N/A   Overcast
7:08 PM 24.8 °F 15.3 °F 15.8 °F 69% 30.20 in 10.0 mi WNW 9.2 mph - N/A   Overcast
7:52 PM 24.1 °F 17.0 °F 16.0 °F 71% 30.24 in 10.0 mi WNW 5.8 mph - N/A   Overcast
8:52 PM 24.1 °F 17.0 °F 16.0 °F 71% 30.25 in 10.0 mi West 5.8 mph - N/A   Overcast
9:52 PM 23.0 °F 18.4 °F 15.1 °F 72% 30.24 in 10.0 mi WSW 3.5 mph - N/A   Mostly Cloudy
10:52 PM 21.9 °F 17.2 °F 15.1 °F 75% 30.24 in 10.0 mi WSW 3.5 mph - N/A   Scattered Clouds
11:52 PM 21.0 °F 12.4 °F 15.1 °F 78% 30.22 in 10.0 mi SSW 6.9 mph - N/A   Scattered Clouds